www.pogodaiklimat.ru

Погода и климат >> Архив погоды >> Россия >> Ненецкий АО >> Канин Нос


ПОГОДА в Канином Носе

  • Прогноз погоды в Канином Носе
  • Монитор погоды в Канином Носе

АРХИВ ПОГОДЫ в Канином Носе

Время (UTC), дата Ветер
(напр.,м/с)
 
Видим.   Явления Облачность Т
(С)
Тd
(С)
f
(%)
Тe
(С)
Тes
(С)
Комфортность P
(гПа)
Po
(гПа)
Тmin
(С)
Tmax
(С)
R
(мм)
R24
(мм)
S
(см)
12 17.01 СВ 11-14
{16}
2000 м метель {ливн. осадки} 10/10 300 м
[Sc]
-4.4 -6.8 83 -14 -14 987.7 981.6
15 17.01 СВ 10-12
{15}
20 км позёмок {ливн. осадки} 10/10 300 м
[Cb cap]
-3.4 -5.6 85 -13 -13 987.2 981.1 -3.2 3
18 17.01 С 12-15
{17}
20 км сильный позёмок {ливн. осадки} 9/9 600 м
[Sc]
-4.0 -6.0 86 -14 -14 987.7 981.6
21 17.01 С 11-15
{17}
20 км позёмок 9/9 600 м
[Sc]
-4.5 -5.9 90 -14 -14 988.5 982.3
00 18.01 СВ 13-17
{17}
20 км позёмок 8/6 600 м
[Sc Ac As]
-4.1 -7.7 76 -14 -14 989.2 983.1
03 18.01 СВ 12-16
{17}
20 км позёмок 8/5 600 м
[Sc Ac As]
-4.4 -8.0 76 -14 -14 990.4 984.3 -4.5 14
06 18.01 СВ 11-14
{16}
20 км позёмок 9/9 600 м
[Sc]
-4.5 -8.4 74 -14 -14 991.8 985.7
09 18.01 СВ 9-12
{14}
20 км {метель} 8/5 600 м
[Sc Ac trans Ci fib]
-5.0 -8.7 75 -14 -14 993.5 987.3
12 18.01 СВ 9-11
{13}
20 км {метель} 6/5 600 м
[Sc Ac trans]
-5.6 -9.1 76 -15 -15 994.8 988.6
15 18.01 СВ 5
{12}
20 км 3/3 600 м
[Sc Ac trans]
-6.1 -9.8 75 -13 -13 996.5 990.3 -4.3
18 18.01 ЮВ 3 20 км 3/0
[Ac trans Ci fib]
-8.2 -9.7 89 -14 -14 997.9 991.6
21 18.01 Ю 4 20 км 4/0
[Ac trans]
-7.4 -9.8 83 -14 -14 999.0 992.8
00 19.01 Ю 4 20 км 4/0
[Ac As]
-5.8 -7.4 88 -12 -12 999.8 993.6
03 19.01 Ю 3 20 км 4/3 600 м
[Sc Ac As]
-7.1 -8.1 93 -13 -13 1000.3 994.1 -8.9 14
06 19.01 Ю 3 20 км 3/1 600 м
[Sc Ac As]
-7.0 -7.8 94 -13 -13 1001.0 994.7
09 19.01 ЮВ 3 20 км 3/1 600 м
[Sc Ac trans Ci fib]
-7.9 -8.7 94 -14 -14 1002.0 995.7
12 19.01 ЮВ 4 20 км 3/3 600 м
[Sc Cs]
-6.7 -7.7 93 -13 -13 1002.8 996.6
15 19.01 ЮВ 6 500 м туман ?/? -8.4 -8.9 96 -17 -17 1003.5 997.2 -6.0
18 19.01 ЮВ 5 500 м туман ?/? -9.2 -9.7 96 -17 -17 1004.2 997.8
21 19.01 ЮВ 4 500 м туман ?/? -9.9 -10.6 95 -17 -17 1004.7 998.3
00 20.01 ЮВ 3 500 м туман ?/? -9.8 -10.5 95 -16 -16 1005.3 999.0
03 20.01 ЮЗ 1 500 м туман ?/? -10.3 -10.8 96 -13 -13 1005.4 999.0 -11.9 14
06 20.01 штиль 0 20 км {туман} 9/8 600 м
[Sc Ac As]
-7.0 -7.4 97 -8 -8 1005.2 998.9
09 20.01 ЮВ 3 20 км 9/3 600 м
[Sc Ac trans Cc]
-9.2 -9.7 96 -15 -15 1005.6 999.3
12 20.01 Ю 2 20 км 9/3 600 м
[Sc Ac trans Cc]
-8.1 -9.2 92 -13 -13 1005.2 998.9
15 20.01 ЮВ 1 20 км 9/3 600 м
[Sc Ac trans Cc]
-6.5 -10.6 73 -9 -9 1004.5 998.2 -6.5
18 20.01 ЮВ 3 20 км 8/0
[Ac trans Cc]
-8.2 -11.2 79 -14 -14 1003.9 997.6
21 20.01 Ю 5 20 км 8/0
[Ac trans Cc]
-7.3 -11.2 74 -15 -15 1003.2 996.9
00 21.01 Ю 5 20 км 9/6 600 м
[Sc Ac trans]
-4.8 -6.4 89 -12 -12 1002.1 995.8
03 21.01 Ю 7 4000 м слаб. ливневой снег 10/10 300 м
[Cb cap]
-4.1 -4.4 98 -12 -12 1000.5 994.3 -8.5 0.3 15
06 21.01 ЮВ 5 20 км в посл. час ливневой снег 9/9 300 м
[Cb cap]
-5.8 -6.0 98 -13 -13 999.8 993.6
09 21.01 Ю 4 4000 м слаб. ливневой снег 10/10 300 м
[Cb cap]
-4.2 -4.5 98 -11 -11 999.7 993.5
12 21.01 ЮВ 5 20 км {ливн. осадки} 8/8 300 м
[Cb cap]
-7.2 -7.5 98 -15 -15 998.9 992.7
15 21.01 СВ 2 20 км 9/8 300 м
[Cb cap Ac trans]
-5.2 -5.5 98 -10 -10 999.1 992.9 -3.9 2
18 21.01 С 6 20 км в посл. час ливневой снег 9/6 300 м
[Cb cap Ac trans]
-5.1 -5.5 97 -13 -13 999.1 992.9
21 21.01 СВ 10-12
{12}
20 км позёмок 9/8 600 м
[Sc Ac lent]
-5.0 -5.4 97 -15 -15 998.8 992.7
00 22.01 СВ 4
{12}
20 км {метель} 9/8 600 м
[Sc Ac trans]
-8.6 -9.2 95 -16 -16 999.0 992.7
03 22.01 СВ 6 20 км 9/8 600 м
[Sc Ac lent]
-6.7 -7.5 94 -15 -15 999.0 992.8 -8.9 0.2 15
06 22.01 В 6 20 км 9/8 600 м
[Sc Ac lent]
-8.0 -9.4 90 -16 -16 999.7 993.4
09 22.01 Ю 2 20 км 5/3 600 м
[Sc Ac As Ci fib]
-9.1 -9.7 95 -14 -14 1000.9 994.6
12 22.01 Ю 3 20 км 9/4 600 м
[Sc Ac As Ci fib]
-9.6 -10.0 97 -16 -16 1001.4 995.1
15 22.01 Ю 2 500 м туман ?/? -9.4 -9.9 96 -14 -14 1001.8 995.5 -5.8
18 22.01 Ю 1 20 км {туман} 3/3 600 м
[Sc Ac lent]
-9.6 -10.1 96 -12 -12 1002.1 995.8
21 22.01 З 1 20 км 3/1 600 м
[Sc Ac lent]
-8.3 -8.8 96 -11 -11 1002.3 996.0
00 23.01 СЗ 1 20 км 4/3 600 м
[Sc Ac lent]
-7.1 -7.5 97 -10 -10 1002.4 996.1
03 23.01 СВ 4 20 км 4/3 600 м
[Sc Ac lent]
-9.0 -9.7 95 -16 -16 1002.4 996.1 -11.3 16
06 23.01 С 7
{10}
20 км 8/8 600 м
[Sc]
-8.4 -9.6 91 -17 -17 1003.0 996.7
09 23.01 С 7
{10}
20 км 10/10 300 м
[Sc]
-8.1 -9.0 93 -17 -17 1004.5 998.2
12 23.01 С 11-13
{13}
20 км позёмок {ливн. осадки} 10/10 300 м
[Cb cap]
-7.9 -9.1 91 -19 -19 1005.1 998.8
15 23.01 СВ 8
{15}
20 км позёмок 9/5 300 м
[Cb cap Ac As]
-8.5 -9.6 92 -18 -18 1006.1 999.8 -7.4 0.5
18 23.01 СВ 8
{14}
20 км позёмок 9/8 300 м
[Cb cap Ac As]
-8.5 -9.4 93 -18 -18 1006.5 1000.2
21 23.01 С 11-14
{14}
20 км позёмок 9/6 600 м
[Sc Ac lent]
-8.7 -10.2 89 -20 -20 1007.2 1000.8
00 24.01 С 8-10
{15}
20 км позёмок 9/8 600 м
[Sc Ac lent]
-8.9 -10.3 90 -19 -19 1007.4 1001.1
03 24.01 СВ 7-11
{15}
20 км позёмок 9/8 600 м
[Sc Ac lent]
-8.8 -10.7 86 -18 -18 1007.8 1001.5 -9.3 16
06 24.01 СВ 9-12
{13}
20 км позёмок {ливн. осадки} 9/9 300 м
[Cb cap]
-9.3 -12.1 80 -19 -19 1009.2 1002.8 -9.5
09 24.01 СВ 10-13
{17}
20 км позёмок 8/6 600 м
[Sc Ac lent]
-10.6 -12.4 87 -21 -21 1011.6 1005.2

 

Местоположение метеостанции Канин Нос (Ненецкий АО, Россия): широта 68.65 долгота 43.30 высота над уровнем моря 49 м.

В архиве по умолчанию представлена погода в Канином Носе за последнюю неделю. Архивные данные за месяц целиком и за предыдущие месяцы, начиная с января 2011 года, Вы можете получить, выбрав интересующий диапазон дат из раскрывающегося списка и нажав кнопку "Ввод!".


*Определитесь, кто Вы:
робот инопланетянин человек

Внимание! Время в таблицах - всемирное. Для получения местного времени необходимо прибавить поправку, которая равна 3 ч.

Смотрите также архив погоды в соседних городах и на ближайших метеорологических станциях:

Погода в Шойне (Ненецкий АО, Россия) (93 км)
Погода в Святом Носе (Мурманская область, Россия) (155 км)
Погода на Мысе Микулкин (Ненецкий АО, Россия) (168 км)
Погода в Иоканьге (Мурманская область, Россия) (170 км)
Погода на Моржовец Острове (Архангельская область, Россия) (217 км)
Погода в Каневке (Мурманская область, Россия) (227 км)
Погода в Неси (Ненецкий АО, Россия) (235 км)
Погода в Бугрино (Ненецкий АО, Россия) (244 км)
Погода в Индиге (Ненецкий АО, Россия) (247 км)
Погода на Колгуевом Острове (Ненецкий АО, Россия) (249 км)

Пояснения к столбцам:

Ветер - указаны скорость ветра в м/с - средняя за 10 мин, порывы в срок и между сроками (в фигурных скобках) и направление, откуда дует ветер: С - северный, СВ - северо-восточный, В - восточный, ЮВ - юго-восточный, Ю - южный, ЮЗ - юго-западный, З - западный, СЗ - северо-западный.
Видимость - горизонтальная дальность видимости в метрах или километрах. При видимости от 1 до 10 км при отсутствии осадков обычно наблюдается дымка, при ухудшении видимости до 1 км и менее - туман. В сухую погоду видимость может ухудшаться дымом, пылью или мглою.
Явления - указаны атмосферные явления, наблюдавшиеся в срок или в последний час перед сроком; фигурными скобками обозначены явления, наблюдавшиеся между сроками (за 1-3 часа до срока); квадратными скобками обозначены град или гололедные отложения с указанием их диаметра в мм.
Облачность - указаны через наклонную черту общая и нижняя облачность в баллах и высота нижней границы облаков в метрах; квадратными скобками обозначены формы облаков: Ci - перистые, Cs - перисто-слоистые, Cc - перисто-кучевые, Ac - высококучевые, As - высокослоистые, Sc - слоисто-кучевые, Ns - слоисто-дождевые, Cu - кучевые, Cb - кучево-дождевые. Подробнее классификацию облаков см. в Атласе облаков (PDF).
T - Температура воздуха - температура, измеренная на высоте 2 м над землей.
Td - Температура точки росы - температура, при понижении до которой содержащийся в воздухе водяной пар достигнет насыщения.
f - Относительная влажность воздуха - влажноcть воздуха, измеренная на высоте 2 м над землей.
Te - Эффективная температура - температура, которую ощущает одетый по сезону человек в тени. Характеристика душности погоды. При расчете учитывается влияние влажности воздуха и скорости ветра на теплоощущения человека.
Tes - Эффективная температура на солнце - температура, которую ощущает человек, с поправкой на солнечный нагрев. Характеристика знойности погоды. Зависит от высоты солнца над горизонтом, облачности и скорости ветра. Ночью, в пасмурную погоду, а также при ветре 12 м/с и более поправка равна нулю.
P - Атмосферное давление - приведенное к уровню моря атмосферное давление.
Po - Атмосферное давление - измеренное на уровне метеостанции атмосферное давление.
Tmin - Минимальная температура - минимум температуры воздуха на высоте 2 м над землей.
Tmax - Максимальная температура - максимум температуры воздуха на высоте 2 м над землей.
R - Количество осадков - Количество выпавших осадков за период времени, мм. При наведении курсора мыши на число - период времени, за который выпало указанное количество осадков.
R24 - Количество осадков - Количество выпавших осадков за 24 часа, мм.
S - Снежный покров - Высота снежного покрова, см. При наведении курсора мыши на число - состояние снежного покрова и степень покрытия местности в баллах.